Regional Weather Roundup
Issued by NWS

Home | Current Version | Previous Version | Text Only | Print | Product List | Glossary Off
Versions: 1 2 3 4 5 6 7 8 9 10 11 12 13 14 15 16 17 18 19 20 21 22 23 24 25 26 27 28 29 30 31 32 33 34 35 36 37 38 39 40 41 42 43 44 45 46 47 48 49 50

000
ASUS45 KABQ 171810
RWRNM
WEATHER ROUNDUP FOR NEW MEXICO
NATIONAL WEATHER SERVICE ALBUQUERQUE NM
1200 PM MDT THU APR 17 2014

NOTE: "FAIR" MEANS FEW OR NO CLOUDS BELOW 12,000 FEET AGL WITH NO
       SIGNIFICANT WEATHER OR OBSTRUCTIONS TO VISION.

      THIS PRODUCT IS RELEASED AS TWO VERSIONS.  ONE VERSION NEAR
      THE TOP OF THE HOUR CONTAINING PRELIMINARY DATA FROM ALBUQUERQUE
      AND OTHER STATIONS.  A FINAL VERSION WITH ADDITIONAL DATA IS
      ISSUED ABOUT 10 MINUTES AFTER THE HOUR.

NMZ501-503-504-510>518-171900-
NORTHWEST PLATEAU/NORTHCENTRAL MOUNTAINS

CITY           SKY/WX    TMP DP  RH WIND       PRES   REMARKS
FARMINGTON     SUNNY     58  20  22 VRB3      30.14F
6HR MIN TEMP:  28; 6HR MAX TEMP:  58;

LOS ALAMOS     MOSUNNY   49  30  46 S8        30.21F
SANTA FE       SUNNY     53  28  38 S10G23    30.18F
6HR MIN TEMP:  32; 6HR MAX TEMP:  55;

TAOS           MOSUNNY   50  27  40 W7        30.22F
ANGEL FIRE     FAIR      36  31  84 CALM      30.23F

$$
NMZ402-403-502-505>509-171900-
WESTCENTRAL MOUNTAINS/SOUTHWEST MOUNTAINS

CITY           SKY/WX    TMP DP  RH WIND       PRES   REMARKS
GALLUP         SUNNY     58  22  24 CALM      30.17F
6HR MIN TEMP:  23; 6HR MAX TEMP:  60;

GRANTS         SUNNY     60  20  21 N7        30.18F
SILVER CITY    SUNNY     70  14  11 S5        30.13S

$$
NMZ407-409-411-412-171900-
SOUTHERN DESERTS

CITY           SKY/WX    TMP DP  RH WIND       PRES   REMARKS
LORDSBURG      FAIR      73  16  11 NW6       30.07S
DEMING         SUNNY     74  18  12 MISG      30.07S
6HR MIN TEMP:  42; 6HR MAX TEMP:  75;

LAS CRUCES     SUNNY     71  20  14 SE9       30.11S
HOLLOMAN AFB   MOSUNNY   71  27  19 NE10      30.09F
ALAMOGORDO     MOSUNNY   68  19  15 W3        30.11F
T OR C         SUNNY     67  26  21 E14G20    30.11F
6HR MIN TEMP:  49; 6HR MAX TEMP:  67;


$$
NMZ519>523-171900-
CENTRAL VALLEYS/CENTRAL HIGHLANDS

CITY           SKY/WX    TMP DP  RH WIND       PRES   REMARKS
ALBUQUERQUE    PTSUNNY   61  27  27 NW6       30.16F
6HR MIN TEMP:  47; 6HR MAX TEMP:  61;

DOUBLE EAGLE   MOSUNNY   57  28  33 VRB6      30.18S
MORIARTY ARPT  FAIR      53  29  39 E9        30.23S
6HR MIN TEMP:  35; 6HR MAX TEMP:  53;

CLINES CORNERS PTSUNNY   46  29  51 VRB5      30.22S
6HR MIN TEMP:  32; 6HR MAX TEMP:  47;

BELEN          FAIR      61  28  28 NW6       30.16F
6HR MIN TEMP:  40; 6HR MAX TEMP:  61;

SOCORRO        FAIR      64  26  24 N6        30.15F
6HR MIN TEMP:  47; 6HR MAX TEMP:  64;


$$
NMZ524>526-539-540-171900-
SOUTHCENTRAL MOUNTAINS

CITY           SKY/WX    TMP DP  RH WIND       PRES   REMARKS
RUIDOSO        SUNNY     54  25  32 N8        30.23S

$$
NMZ527>531-171900-
NORTHEAST HIGHLANDS/NORTHEAST PLAINS

CITY           SKY/WX    TMP DP  RH WIND       PRES   REMARKS
LAS VEGAS      CLOUDY    43  29  57 NE7       30.24S
6HR MIN TEMP:  33; 6HR MAX TEMP:  43;

RATON          CLOUDY    41  34  76 S9        30.23S
6HR MIN TEMP:  36; 6HR MAX TEMP:  41;

CLAYTON        CLOUDY    45  33  63 E13       30.24S
6HR MIN TEMP:  38; 6HR MAX TEMP:  46; 6HR PCP: TRACE;


$$
NMZ532>537-171900-
EASTCENTRAL PLAINS

CITY           SKY/WX    TMP DP  RH WIND       PRES   REMARKS
TUCUMCARI      SUNNY     55  34  45 NE14G22   30.21S
6HR MIN TEMP:  43; 6HR MAX TEMP:  56;

CANNON AFB     SUNNY     57  34  42 NE16G23   30.18S
6HR MIN TEMP:  40; 6HR MAX TEMP:  57;

CLOVIS AIRPORT MOSUNNY   57  36  44 NE16      30.21F

$$
NMZ028-029-538-171900-
SOUTHEAST PLAINS

CITY           SKY/WX    TMP DP  RH WIND       PRES   REMARKS
ROSWELL        SUNNY     62  32  32 N14G25    30.17S
6HR MIN TEMP:  48; 6HR MAX TEMP:  62;

ARTESIA        SUNNY     61  32  33 N20G25    30.17F
CARLSBAD       SUNNY     64  32  30 NW17G29   30.14F
6HR MIN TEMP:  53; 6HR MAX TEMP:  65; 6HR PCP: TRACE;

HOBBS          SUNNY     64  36  34 NE13G22   30.13R


$$



USA.gov is the U.S. government's official web portal to all federal, state and local government web resources and services.